| time (UTC) | temp F | wind direction | speed MPH | gust MPH | rain 1hr in | rain 24hr in | rain mn in | humidity % | barometer mb |
| 20260901190204 | 100 | 126 | 1.0 | 2.0 | 0.00 | 0.00 | 0.00 | 39 | 1013.9 |
| 20260901185704 | 99 | 280 | 2.0 | 7.0 | 0.00 | 0.00 | 0.00 | 40 | 1013.9 |
| 20260901185203 | 99 | 172 | 2.0 | 5.0 | 0.00 | 0.00 | 0.00 | 41 | 1013.9 |
| 20260901184704 | 99 | 245 | 2.0 | 6.0 | 0.00 | 0.00 | 0.00 | 42 | 1014.0 |
| 20260901184204 | 99 | 189 | 3.0 | 6.0 | 0.00 | 0.00 | 0.00 | 42 | 1014.1 |
| 20260901183203 | 99 | 139 | 2.0 | 6.0 | 0.00 | 0.00 | 0.00 | 43 | 1014.2 |
| 20260901182704 | 98 | 98 | 3.0 | 6.0 | 0.00 | 0.00 | 0.00 | 44 | 1014.4 |
| 20260901182204 | 98 | 258 | 3.0 | 6.0 | 0.00 | 0.00 | 0.00 | 46 | 1014.5 |
| 20260901181703 | 97 | 200 | 2.0 | 6.0 | 0.00 | 0.00 | 0.00 | 47 | 1014.5 |
| 20260901180703 | 96 | 279 | 2.0 | 6.0 | 0.00 | 0.00 | 0.00 | 47 | 1014.8 |
| 20260901180203 | 96 | 236 | 2.0 | 6.0 | 0.00 | 0.00 | 0.00 | 48 | 1014.8 |
| 20260901175704 | 96 | 259 | 2.0 | 3.0 | 0.00 | 0.00 | 0.00 | 48 | 1014.8 |
| 20260901175204 | 96 | 270 | 2.0 | 3.0 | 0.00 | 0.00 | 0.00 | 48 | 1014.8 |
| 20260901174703 | 96 | 214 | 2.0 | 5.0 | 0.00 | 0.00 | 0.00 | 48 | 1015.1 |
| 20260901174204 | 95 | 67 | 1.0 | 6.0 | 0.00 | 0.00 | 0.00 | 49 | 1015.1 |
| 20260901173704 | 94 | 271 | 0.0 | 6.0 | 0.00 | 0.00 | 0.00 | 52 | 1015.1 |
| 20260901173203 | 94 | 245 | 1.0 | 5.0 | 0.00 | 0.00 | 0.00 | 51 | 1015.2 |
| 20260901172704 | 94 | 284 | 3.0 | 8.0 | 0.00 | 0.00 | 0.00 | 51 | 1015.3 |
| 20260901172204 | 94 | 214 | 2.0 | 7.0 | 0.00 | 0.00 | 0.00 | 52 | 1015.4 |
| 20260901171704 | 94 | 279 | 1.0 | 5.0 | 0.00 | 0.00 | 0.00 | 51 | 1015.4 |
| 20260901170704 | 93 | 125 | 3.0 | 6.0 | 0.00 | 0.00 | 0.00 | 53 | 1015.7 |
| 20260901165704 | 92 | 132 | 1.0 | 7.0 | 0.00 | 0.00 | 0.00 | 56 | 1015.8 |
| 20260901165203 | 91 | 235 | 1.0 | 5.0 | 0.00 | 0.00 | 0.00 | 57 | 1015.8 |
| 20260901164703 | 91 | 190 | 3.0 | 6.0 | 0.00 | 0.00 | 0.00 | 57 | 1015.9 |
| 20260901164204 | 91 | 179 | 3.0 | 9.0 | 0.00 | 0.00 | 0.00 | 56 | 1015.9 |
| 20260901163703 | 91 | 169 | 1.0 | 7.0 | 0.00 | 0.00 | 0.00 | 57 | 1015.9 |
| 20260901163203 | 91 | 120 | 4.0 | 10.0 | 0.00 | 0.00 | 0.00 | 57 | 1015.9 |
| 20260901162704 | 90 | 214 | 4.0 | 9.0 | 0.00 | 0.00 | 0.00 | 58 | 1015.9 |
| 20260901162203 | 90 | 283 | 4.0 | 8.0 | 0.00 | 0.00 | 0.00 | 59 | 1016.0 |
| 20260901161203 | 89 | 184 | 4.0 | 12.0 | 0.00 | 0.00 | 0.00 | 60 | 1016.1 |
| 20260901160703 | 89 | 249 | 2.0 | 5.0 | 0.00 | 0.00 | 0.00 | 60 | 1016.0 |
| 20260901160203 | 89 | 273 | 1.0 | 7.0 | 0.00 | 0.00 | 0.00 | 62 | 1016.0 |
| 20260901155704 | 89 | 219 | 1.0 | 6.0 | 0.00 | 0.00 | 0.00 | 62 | 1016.1 |
| 20260901155203 | 88 | 277 | 2.0 | 6.0 | 0.00 | 0.00 | 0.00 | 61 | 1016.1 |
| 20260901154704 | 88 | 251 | 2.0 | 8.0 | 0.00 | 0.00 | 0.00 | 63 | 1016.1 |
| 20260901154204 | 88 | 205 | 3.0 | 6.0 | 0.00 | 0.00 | 0.00 | 64 | 1016.1 |
| 20260901153703 | 87 | 244 | 1.0 | 3.0 | 0.00 | 0.00 | 0.00 | 65 | 1016.1 |
| 20260901153203 | 87 | 175 | 1.0 | 5.0 | 0.00 | 0.00 | 0.00 | 65 | 1016.1 |
| 20260901152704 | 87 | 202 | 3.0 | 7.0 | 0.00 | 0.00 | 0.00 | 64 | 1016.1 |
| 20260901152204 | 87 | 193 | 3.0 | 6.0 | 0.00 | 0.00 | 0.00 | 65 | 1016.1 |
| 20260901151704 | 87 | 211 | 2.0 | 7.0 | 0.00 | 0.00 | 0.00 | 65 | 1016.1 |
| 20260901151203 | 86 | 197 | 0.0 | 3.0 | 0.00 | 0.00 | 0.00 | 66 | 1016.2 |
| 20260901150704 | 86 | 191 | 2.0 | 7.0 | 0.00 | 0.00 | 0.00 | 67 | 1016.1 |
| 20260901150204 | 86 | 193 | 0.0 | 1.0 | 0.00 | 0.00 | 0.00 | 68 | 1016.1 |
| 20260901145204 | 86 | 189 | 1.0 | 2.0 | 0.00 | 0.00 | 0.00 | 67 | 1016.1 |
| 20260901144704 | 85 | 214 | 1.0 | 3.0 | 0.00 | 0.00 | 0.00 | 68 | 1016.1 |
| 20260901144203 | 86 | 205 | 0.0 | 5.0 | 0.00 | 0.00 | 0.00 | 68 | 1016.2 |
| 20260901143204 | 85 | 19 | 0.0 | 0.0 | 0.00 | 0.00 | 0.00 | 68 | 1016.2 |
| 20260901142703 | 85 | 77 | 0.0 | 0.0 | 0.00 | 0.00 | 0.00 | 69 | 1016.1 |
| 20260901141703 | 83 | 68 | 0.0 | 1.0 | 0.00 | 0.00 | 0.00 | 71 | 1016.2 |
| 20260901141204 | 83 | 61 | 0.0 | 2.0 | 0.00 | 0.00 | 0.00 | 71 | 1016.2 |
| 20260901140203 | 83 | 202 | 0.0 | 0.0 | 0.00 | 0.00 | 0.00 | 72 | 1016.3 |
| 20260901135704 | 82 | 202 | 0.0 | 1.0 | 0.00 | 0.00 | 0.00 | 73 | 1016.3 |
| 20260901135204 | 82 | 131 | 0.0 | 1.0 | 0.00 | 0.00 | 0.00 | 74 | 1016.4 |
| 20260901134703 | 81 | 172 | 0.0 | 1.0 | 0.00 | 0.00 | 0.00 | 74 | 1016.3 |
| 20260901134204 | 81 | 167 | 1.0 | 2.0 | 0.00 | 0.00 | 0.00 | 75 | 1016.3 |
| 20260901133704 | 80 | 150 | 0.0 | 1.0 | 0.00 | 0.00 | 0.00 | 75 | 1016.3 |
| 20260901133203 | 80 | 175 | 0.0 | 0.0 | 0.00 | 0.00 | 0.00 | 77 | 1016.2 |
| 20260901132704 | 79 | 182 | 0.0 | 0.0 | 0.00 | 0.00 | 0.00 | 78 | 1016.2 |
| 20260901132204 | 78 | 128 | 0.0 | 0.0 | 0.00 | 0.00 | 0.00 | 79 | 1016.2 |
| 20260901131704 | 77 | 195 | 0.0 | 0.0 | 0.00 | 0.00 | 0.00 | 79 | 1016.2 |
| 20260901131204 | 77 | 103 | 0.0 | 0.0 | 0.00 | 0.00 | 0.00 | 80 | 1016.2 |
| 20260901130703 | 76 | 127 | 0.0 | 0.0 | 0.00 | 0.00 | 0.00 | 82 | 1016.2 |
| 20260901130204 | 75 | 127 | 0.0 | 0.0 | 0.00 | 0.00 | 0.00 | 83 | 1016.2 |
| 20260901125703 | 74 | 127 | 0.0 | 0.0 | 0.00 | 0.00 | 0.00 | 84 | 1016.1 |
| 20260901125204 | 74 | 127 | 0.0 | 0.0 | 0.00 | 0.00 | 0.00 | 84 | 1016.1 |
| 20260901124703 | 73 | 127 | 0.0 | 0.0 | 0.00 | 0.00 | 0.00 | 85 | 1016.1 |
| 20260901123703 | 73 | 127 | 0.0 | 0.0 | 0.00 | 0.00 | 0.00 | 85 | 1016.0 |
| 20260901122703 | 72 | 127 | 0.0 | 0.0 | 0.00 | 0.00 | 0.00 | 85 | 1015.8 |
| 20260901121704 | 72 | 134 | 0.0 | 0.0 | 0.00 | 0.00 | 0.00 | 86 | 1015.7 |
| 20260901121203 | 72 | 134 | 0.0 | 0.0 | 0.00 | 0.00 | 0.00 | 85 | 1015.6 |
| 20260901120704 | 72 | 134 | 0.0 | 0.0 | 0.00 | 0.00 | 0.00 | 86 | 1015.6 |
| 20260901120203 | 72 | 134 | 0.0 | 0.0 | 0.00 | 0.00 | 0.00 | 86 | 1015.5 |
| 20260901115703 | 71 | 134 | 0.0 | 0.0 | 0.00 | 0.00 | 0.00 | 86 | 1015.6 |
| 20260901115204 | 71 | 132 | 0.0 | 0.0 | 0.00 | 0.00 | 0.00 | 86 | 1015.5 |
| 20260901113704 | 72 | 207 | 0.0 | 0.0 | 0.00 | 0.00 | 0.00 | 85 | 1015.4 |
| 20260901113204 | 72 | 207 | 0.0 | 0.0 | 0.00 | 0.00 | 0.00 | 85 | 1015.3 |
| 20260901112703 | 72 | 72 | 0.0 | 0.0 | 0.00 | 0.00 | 0.00 | 84 | 1015.3 |
| 20260901112203 | 72 | 72 | 0.0 | 0.0 | 0.00 | 0.00 | 0.00 | 84 | 1015.2 |
| 20260901111703 | 72 | 72 | 0.0 | 0.0 | 0.00 | 0.00 | 0.00 | 84 | 1015.1 |
| 20260901111204 | 72 | 82 | 0.0 | 0.0 | 0.00 | 0.00 | 0.00 | 83 | 1015.1 |
| 20260901110703 | 72 | 82 | 0.0 | 0.0 | 0.00 | 0.00 | 0.00 | 84 | 1015.1 |
| 20260901110203 | 72 | 82 | 0.0 | 0.0 | 0.00 | 0.00 | 0.00 | 84 | 1015.1 |
| 20260901105704 | 72 | 82 | 0.0 | 0.0 | 0.00 | 0.00 | 0.00 | 84 | 1015.1 |
| 20260901105204 | 71 | 82 | 0.0 | 0.0 | 0.00 | 0.00 | 0.00 | 85 | 1015.0 |
| 20260901103704 | 71 | 82 | 0.0 | 0.0 | 0.00 | 0.00 | 0.00 | 84 | 1015.0 |
| 20260901103203 | 71 | 82 | 0.0 | 0.0 | 0.00 | 0.00 | 0.00 | 84 | 1015.0 |
| 20260901102704 | 71 | 82 | 0.0 | 0.0 | 0.00 | 0.00 | 0.00 | 84 | 1015.0 |
| 20260901101704 | 72 | 82 | 0.0 | 0.0 | 0.00 | 0.00 | 0.00 | 83 | 1014.9 |
| 20260901101204 | 72 | 82 | 0.0 | 0.0 | 0.00 | 0.00 | 0.00 | 83 | 1014.9 |
| 20260901100703 | 72 | 82 | 0.0 | 0.0 | 0.00 | 0.00 | 0.00 | 82 | 1014.9 |
| 20260901100204 | 72 | 82 | 0.0 | 0.0 | 0.00 | 0.00 | 0.00 | 82 | 1014.9 |
| 20260901095704 | 72 | 82 | 0.0 | 0.0 | 0.00 | 0.00 | 0.00 | 82 | 1014.9 |
| 20260901095203 | 72 | 82 | 0.0 | 0.0 | 0.00 | 0.00 | 0.00 | 81 | 1014.9 |
| 20260901094704 | 73 | 82 | 0.0 | 0.0 | 0.00 | 0.00 | 0.00 | 81 | 1014.9 |
| 20260901094204 | 72 | 82 | 0.0 | 0.0 | 0.00 | 0.00 | 0.00 | 81 | 1014.8 |
| 20260901093703 | 73 | 82 | 0.0 | 0.0 | 0.00 | 0.00 | 0.00 | 81 | 1014.9 |
| 20260901093204 | 73 | 82 | 0.0 | 0.0 | 0.00 | 0.00 | 0.00 | 80 | 1014.8 |
| 20260901092704 | 73 | 82 | 0.0 | 0.0 | 0.00 | 0.00 | 0.00 | 79 | 1014.8 |
| 20260901092204 | 74 | 82 | 0.0 | 0.0 | 0.00 | 0.00 | 0.00 | 79 | 1014.8 |
| 20260901091704 | 74 | 82 | 0.0 | 0.0 | 0.00 | 0.00 | 0.00 | 78 | 1014.7 |
| 20260901091203 | 74 | 82 | 0.0 | 0.0 | 0.00 | 0.00 | 0.00 | 78 | 1014.7 |
| 20260901090704 | 74 | 82 | 0.0 | 0.0 | 0.00 | 0.00 | 0.00 | 78 | 1014.7 |
| 20260901090204 | 74 | 82 | 0.0 | 0.0 | 0.00 | 0.00 | 0.00 | 78 | 1014.7 |
| 20260901085703 | 74 | 82 | 0.0 | 0.0 | 0.00 | 0.00 | 0.00 | 78 | 1014.7 |
| 20260901085204 | 74 | 82 | 0.0 | 0.0 | 0.00 | 0.00 | 0.00 | 77 | 1014.6 |
| 20260901084704 | 75 | 82 | 0.0 | 0.0 | 0.00 | 0.00 | 0.00 | 77 | 1014.7 |
| 20260901084203 | 75 | 82 | 0.0 | 0.0 | 0.00 | 0.00 | 0.00 | 77 | 1014.6 |
| 20260901083703 | 75 | 82 | 0.0 | 0.0 | 0.00 | 0.00 | 0.00 | 77 | 1014.6 |
| 20260901082704 | 75 | 84 | 0.0 | 0.0 | 0.00 | 0.00 | 0.00 | 77 | 1014.6 |
| 20260901082204 | 75 | 84 | 0.0 | 0.0 | 0.00 | 0.00 | 0.00 | 77 | 1014.5 |
| 20260901081703 | 74 | 163 | 0.0 | 0.0 | 0.00 | 0.00 | 0.00 | 77 | 1014.4 |
| 20260901081204 | 75 | 165 | 0.0 | 0.0 | 0.00 | 0.00 | 0.00 | 76 | 1014.4 |
| 20260901080704 | 75 | 165 | 0.0 | 0.0 | 0.00 | 0.00 | 0.00 | 77 | 1014.5 |
| 20260901075704 | 75 | 165 | 0.0 | 0.0 | 0.00 | 0.00 | 0.00 | 75 | 1014.4 |
| 20260901075203 | 75 | 165 | 0.0 | 0.0 | 0.00 | 0.00 | 0.00 | 75 | 1014.4 |
| 20260901074704 | 75 | 165 | 0.0 | 0.0 | 0.00 | 0.00 | 0.00 | 75 | 1014.4 |
| 20260901073204 | 75 | 165 | 0.0 | 0.0 | 0.00 | 0.00 | 0.00 | 75 | 1014.5 |
| 20260901072703 | 75 | 165 | 0.0 | 0.0 | 0.00 | 0.00 | 0.00 | 75 | 1014.5 |
| 20260901071703 | 76 | 165 | 0.0 | 0.0 | 0.00 | 0.00 | 0.00 | 74 | 1014.4 |
| 20260901071203 | 76 | 165 | 0.0 | 0.0 | 0.00 | 0.00 | 0.00 | 74 | 1014.4 |
| 20260901070704 | 76 | 165 | 0.0 | 0.0 | 0.00 | 0.00 | 0.00 | 74 | 1014.5 |
| 20260901065704 | 76 | 165 | 0.0 | 0.0 | 0.00 | 0.00 | 0.00 | 74 | 1014.5 |
| 20260901065203 | 76 | 165 | 0.0 | 0.0 | 0.00 | 0.00 | 0.00 | 74 | 1014.6 |
| 20260901064704 | 76 | 165 | 0.0 | 0.0 | 0.00 | 0.00 | 0.00 | 74 | 1014.5 |
| 20260901064204 | 75 | 165 | 0.0 | 0.0 | 0.00 | 0.00 | 0.00 | 74 | 1014.6 |
| 20260901063704 | 75 | 165 | 0.0 | 0.0 | 0.00 | 0.00 | 0.00 | 74 | 1014.6 |
| 20260901063204 | 75 | 165 | 0.0 | 0.0 | 0.00 | 0.00 | 0.00 | 74 | 1014.6 |
| 20260901062203 | 76 | 165 | 0.0 | 0.0 | 0.00 | 0.00 | 0.00 | 74 | 1014.6 |
| 20260901061704 | 76 | 165 | 0.0 | 0.0 | 0.00 | 0.00 | 0.00 | 73 | 1014.6 |
| 20260901060703 | 76 | 165 | 0.0 | 0.0 | 0.00 | 0.00 | 0.00 | 72 | 1014.6 |
| 20260901060204 | 77 | 165 | 0.0 | 0.0 | 0.00 | 0.00 | 0.00 | 71 | 1014.6 |
| 20260901055704 | 77 | 165 | 0.0 | 0.0 | 0.00 | 0.00 | 0.00 | 71 | 1014.5 |
| 20260901055203 | 77 | 165 | 0.0 | 0.0 | 0.00 | 0.00 | 0.00 | 70 | 1014.5 |
| 20260901054703 | 77 | 165 | 0.0 | 0.0 | 0.00 | 0.00 | 0.00 | 70 | 1014.6 |
| 20260901054203 | 78 | 165 | 0.0 | 0.0 | 0.00 | 0.00 | 0.00 | 70 | 1014.5 |
| 20260901053703 | 78 | 169 | 0.0 | 0.0 | 0.00 | 0.00 | 0.00 | 70 | 1014.5 |
| 20260901053203 | 78 | 169 | 0.0 | 0.0 | 0.00 | 0.00 | 0.00 | 69 | 1014.4 |
| 20260901052704 | 78 | 169 | 0.0 | 0.0 | 0.00 | 0.00 | 0.00 | 68 | 1014.4 |
| 20260901052204 | 78 | 169 | 0.0 | 0.0 | 0.00 | 0.00 | 0.00 | 68 | 1014.4 |
| 20260901051704 | 78 | 169 | 0.0 | 0.0 | 0.00 | 0.00 | 0.00 | 67 | 1014.4 |
| 20260901051203 | 79 | 169 | 0.0 | 0.0 | 0.00 | 0.00 | 0.00 | 67 | 1014.3 |
| 20260901050704 | 79 | 169 | 0.0 | 0.0 | 0.00 | 0.00 | 0.00 | 67 | 1014.3 |
| 20260901050203 | 79 | 169 | 0.0 | 0.0 | 0.00 | 0.00 | 0.00 | 66 | 1014.3 |
| 20260901045204 | 79 | 169 | 0.0 | 0.0 | 0.00 | 0.00 | 0.00 | 66 | 1014.3 |
| 20260901044704 | 79 | 169 | 0.0 | 0.0 | 0.00 | 0.00 | 0.00 | 66 | 1014.3 |
| 20260901044203 | 80 | 169 | 0.0 | 0.0 | 0.00 | 0.00 | 0.00 | 65 | 1014.3 |
| 20260901043203 | 80 | 169 | 0.0 | 0.0 | 0.00 | 0.00 | 0.00 | 65 | 1014.2 |
| 20260901042704 | 80 | 169 | 0.0 | 0.0 | 0.00 | 0.00 | 0.00 | 65 | 1014.2 |
| 20260901042203 | 80 | 169 | 0.0 | 0.0 | 0.00 | 0.00 | 0.00 | 64 | 1014.2 |
| 20260901041704 | 80 | 169 | 0.0 | 0.0 | 0.00 | 0.00 | 0.00 | 64 | 1014.2 |
| 20260901041203 | 81 | 169 | 0.0 | 0.0 | 0.00 | 0.00 | 0.00 | 64 | 1014.1 |
| 20260901040704 | 81 | 169 | 0.0 | 0.0 | 0.00 | 0.00 | 0.00 | 63 | 1014.1 |
| 20260901040203 | 81 | 169 | 0.0 | 0.0 | 0.00 | 0.00 | 0.00 | 63 | 1014.1 |
| 20260901035704 | 82 | 169 | 0.0 | 0.0 | 0.00 | 0.00 | 0.00 | 63 | 1014.1 |
| 20260901035203 | 82 | 169 | 0.0 | 0.0 | 0.00 | 0.00 | 0.00 | 62 | 1014.1 |
| 20260901034704 | 82 | 170 | 0.0 | 0.0 | 0.00 | 0.00 | 0.00 | 61 | 1014.0 |
| 20260901033703 | 83 | 179 | 0.0 | 0.0 | 0.00 | 0.00 | 0.00 | 60 | 1014.2 |
| 20260901033204 | 83 | 173 | 0.0 | 0.0 | 0.00 | 0.00 | 0.00 | 60 | 1014.2 |
| 20260901031204 | 84 | 172 | 0.0 | 0.0 | 0.00 | 0.00 | 0.00 | 59 | 1014.1 |
| 20260901030703 | 84 | 198 | 0.0 | 0.0 | 0.00 | 0.00 | 0.00 | 59 | 1014.2 |
| 20260901030204 | 84 | 186 | 0.0 | 2.0 | 0.00 | 0.00 | 0.00 | 58 | 1014.0 |
| 20260901025703 | 84 | 195 | 0.0 | 1.0 | 0.00 | 0.00 | 0.00 | 58 | 1014.0 |
| 20260901025204 | 84 | 195 | 0.0 | 3.0 | 0.00 | 0.00 | 0.00 | 58 | 1014.0 |
| 20260901024703 | 84 | 195 | 0.0 | 1.0 | 0.00 | 0.00 | 0.00 | 58 | 1014.0 |
| 20260901024203 | 85 | 144 | 0.0 | 3.0 | 0.00 | 0.00 | 0.00 | 58 | 1013.9 |
| 20260901023703 | 85 | 191 | 0.0 | 2.0 | 0.00 | 0.00 | 0.00 | 57 | 1014.0 |
| 20260901023204 | 85 | 230 | 0.0 | 3.0 | 0.00 | 0.00 | 0.00 | 57 | 1013.9 |
| 20260901022704 | 85 | 138 | 0.0 | 1.0 | 0.00 | 0.00 | 0.00 | 57 | 1013.8 |
| 20260901022204 | 85 | 149 | 0.0 | 3.0 | 0.00 | 0.00 | 0.00 | 56 | 1013.6 |
| 20260901021204 | 86 | 147 | 0.0 | 1.0 | 0.00 | 0.00 | 0.00 | 56 | 1013.5 |
| 20260901015703 | 86 | 107 | 0.0 | 1.0 | 0.00 | 0.00 | 0.00 | 55 | 1013.2 |
| 20260901015204 | 86 | 183 | 0.0 | 2.0 | 0.00 | 0.00 | 0.00 | 55 | 1013.2 |
| 20260901014704 | 86 | 118 | 0.0 | 3.0 | 0.00 | 0.00 | 0.00 | 54 | 1013.2 |
| 20260901013704 | 85 | 147 | 0.0 | 1.0 | 0.00 | 0.00 | 0.00 | 55 | 1012.9 |
| 20260901013204 | 86 | 193 | 0.0 | 0.0 | 0.00 | 0.00 | 0.00 | 54 | 1012.9 |
| 20260901012704 | 86 | 180 | 0.0 | 0.0 | 0.00 | 0.00 | 0.00 | 54 | 1012.8 |
| 20260901011704 | 87 | 180 | 0.0 | 0.0 | 0.00 | 0.00 | 0.00 | 52 | 1012.6 |
| 20260901011203 | 87 | 180 | 0.0 | 0.0 | 0.00 | 0.00 | 0.00 | 52 | 1012.6 |
| 20260901010703 | 88 | 180 | 0.0 | 0.0 | 0.00 | 0.00 | 0.00 | 52 | 1012.6 |
| 20260901005703 | 89 | 84 | 0.0 | 0.0 | 0.00 | 0.00 | 0.00 | 50 | 1012.4 |
| 20260901004703 | 90 | 84 | 0.0 | 0.0 | 0.00 | 0.00 | 0.00 | 48 | 1012.4 |
| 20260901003204 | 92 | 110 | 0.0 | 0.0 | 0.00 | 0.00 | 0.00 | 46 | 1012.3 |
| 20260901002704 | 93 | 332 | 0.0 | 1.0 | 0.00 | 0.00 | 0.00 | 45 | 1012.3 |
| 20260901002204 | 93 | 309 | 0.0 | 0.0 | 0.00 | 0.00 | 0.00 | 44 | 1012.3 |
| 20260901001704 | 94 | 309 | 0.0 | 1.0 | 0.00 | 0.00 | 0.00 | 43 | 1012.2 |
| 20260901001204 | 95 | 210 | 0.0 | 0.0 | 0.00 | 0.00 | 0.00 | 42 | 1012.2 |
| 20260901000204 | 96 | 227 | 0.0 | 3.0 | 0.00 | 0.00 | 0.00 | 41 | 1012.2 |
| 20260831235703 | 96 | 281 | 0.0 | 3.0 | 0.00 | 0.00 | 0.00 | 41 | 1012.2 |
| 20260831235203 | 97 | 156 | 0.0 | 3.0 | 0.00 | 0.00 | 0.00 | 40 | 1012.2 |
| 20260831234704 | 97 | 151 | 0.0 | 3.0 | 0.00 | 0.00 | 0.00 | 40 | 1012.2 |
| 20260831234204 | 97 | 207 | 1.0 | 3.0 | 0.00 | 0.00 | 0.00 | 40 | 1012.0 |
| 20260831232703 | 98 | 157 | 1.0 | 7.0 | 0.00 | 0.00 | 0.00 | 39 | 1012.1 |
| 20260831232204 | 98 | 77 | 0.0 | 1.0 | 0.00 | 0.00 | 0.00 | 40 | 1012.1 |
| 20260831231204 | 98 | 188 | 1.0 | 5.0 | 0.00 | 0.00 | 0.00 | 40 | 1012.2 |
| 20260831230703 | 98 | 194 | 0.0 | 5.0 | 0.00 | 0.00 | 0.00 | 40 | 1012.2 |
| 20260831230204 | 98 | 145 | 1.0 | 5.0 | 0.00 | 0.00 | 0.00 | 40 | 1012.2 |
| 20260831225704 | 97 | 164 | 2.0 | 6.0 | 0.00 | 0.00 | 0.00 | 40 | 1012.2 |
| 20260831224704 | 97 | 162 | 1.0 | 5.0 | 0.00 | 0.00 | 0.00 | 42 | 1012.2 |
| 20260831224203 | 98 | 206 | 2.0 | 5.0 | 0.00 | 0.00 | 0.00 | 40 | 1012.3 |
| 20260831223704 | 98 | 61 | 1.0 | 6.0 | 0.00 | 0.00 | 0.00 | 39 | 1012.2 |
| 20260831223203 | 98 | 173 | 1.0 | 7.0 | 0.00 | 0.00 | 0.00 | 40 | 1012.3 |
| 20260831222703 | 98 | 87 | 1.0 | 9.0 | 0.00 | 0.00 | 0.00 | 40 | 1012.3 |
| 20260831222204 | 98 | 189 | 5.0 | 8.0 | 0.00 | 0.00 | 0.00 | 40 | 1012.2 |
| 20260831221704 | 98 | 186 | 2.0 | 6.0 | 0.00 | 0.00 | 0.00 | 40 | 1012.2 |
| 20260831221203 | 98 | 137 | 3.0 | 5.0 | 0.00 | 0.00 | 0.00 | 41 | 1012.3 |
| 20260831220704 | 98 | 208 | 2.0 | 9.0 | 0.00 | 0.00 | 0.00 | 41 | 1012.3 |
| 20260831220204 | 97 | 0 | 0.0 | 6.0 | 0.00 | 0.00 | 0.00 | 42 | 1012.4 |
| 20260831215204 | 98 | 132 | 0.0 | 2.0 | 0.00 | 0.00 | 0.00 | 40 | 1012.4 |
| 20260831214703 | 98 | 129 | 0.0 | 0.0 | 0.00 | 0.00 | 0.00 | 40 | 1012.4 |
| 20260831214204 | 98 | 129 | 0.0 | 2.0 | 0.00 | 0.00 | 0.00 | 40 | 1012.4 |
| 20260831213704 | 98 | 197 | 0.0 | 1.0 | 0.00 | 0.00 | 0.00 | 41 | 1012.5 |
| 20260831212703 | 97 | 213 | 1.0 | 3.0 | 0.00 | 0.00 | 0.00 | 40 | 1012.5 |
| 20260831212204 | 98 | 122 | 0.0 | 1.0 | 0.00 | 0.00 | 0.00 | 40 | 1012.5 |
| 20260831210704 | 99 | 134 | 0.0 | 3.0 | 0.00 | 0.00 | 0.00 | 38 | 1012.6 |
| 20260831210203 | 99 | 191 | 3.0 | 8.0 | 0.00 | 0.00 | 0.00 | 38 | 1012.6 |
| 20260831205703 | 98 | 110 | 0.0 | 2.0 | 0.00 | 0.00 | 0.00 | 39 | 1012.7 |
| 20260831205204 | 99 | 78 | 1.0 | 3.0 | 0.00 | 0.00 | 0.00 | 38 | 1012.7 |
| 20260831204203 | 98 | 119 | 0.0 | 1.0 | 0.00 | 0.00 | 0.00 | 38 | 1012.9 |
| 20260831203203 | 99 | 117 | 2.0 | 7.0 | 0.00 | 0.00 | 0.00 | 37 | 1013.1 |
| 20260831202204 | 100 | 122 | 1.0 | 9.0 | 0.00 | 0.00 | 0.00 | 36 | 1013.0 |
| 20260831201703 | 99 | 218 | 3.0 | 7.0 | 0.00 | 0.00 | 0.00 | 37 | 1013.1 |
| 20260831201204 | 98 | 185 | 2.0 | 5.0 | 0.00 | 0.00 | 0.00 | 39 | 1013.1 |
| 20260831200204 | 97 | 50 | 2.0 | 3.0 | 0.00 | 0.00 | 0.00 | 37 | 1013.2 |
| 20260831195704 | 98 | 64 | 1.0 | 2.0 | 0.00 | 0.00 | 0.00 | 37 | 1013.3 |
| 20260831195203 | 99 | 76 | 1.0 | 3.0 | 0.00 | 0.00 | 0.00 | 36 | 1013.3 |
| 20260831194704 | 99 | 104 | 0.0 | 2.0 | 0.00 | 0.00 | 0.00 | 37 | 1013.4 |
| 20260831194204 | 99 | 163 | 1.0 | 3.0 | 0.00 | 0.00 | 0.00 | 37 | 1013.5 |
| 20260831193704 | 99 | 152 | 1.0 | 3.0 | 0.00 | 0.00 | 0.00 | 36 | 1013.5 |
| 20260831193204 | 99 | 261 | 2.0 | 5.0 | 0.00 | 0.00 | 0.00 | 36 | 1013.5 |
| 20260831192704 | 99 | 60 | 3.0 | 6.0 | 0.00 | 0.00 | 0.00 | 36 | 1013.5 |
| 20260831192203 | 99 | 203 | 2.0 | 8.0 | 0.00 | 0.00 | 0.00 | 36 | 1013.6 |
| 20260831191704 | 99 | 243 | 5.0 | 9.0 | 0.00 | 0.00 | 0.00 | 37 | 1013.6 |
| 20260831191203 | 99 | 194 | 3.0 | 9.0 | 0.00 | 0.00 | 0.00 | 37 | 1013.8 |
| 20260831190704 | 98 | 191 | 5.0 | 10.0 | 0.00 | 0.00 | 0.00 | 37 | 1013.9 |